Tracking 18984 objects as of 24-Feb-2018
HD Live streaming from Space Station
objects crossing your sky now

GALS 1

Track GALS 1 now!
GALS 1 is classified as:


NORAD ID: 22963
Int'l Code: 1994-002A
Perigee: 35,788.7 km
Apogee: 35,845.7 km
Inclination: 14.4 °
Period: 1,437.3 minutes
Semi major axis: 42188 km
RCS: 6.3096 m2 (large)
Launch date: January 20, 1994
Source: Commonwealth of Independent States (former USSR) (CIS)
Launch site: TYURATAM MISSILE AND SPACE COMPLEX (TTMTR)
aabbcc
Your satellite tracking list
Your tracking list is empty




NASA's NSSDC Master Catalog

Two Line Element Set (TLE):
1 22963U 94002A   18053.91854831 -.00000040  00000-0  00000+0 0  9997
2 22963  14.4287  19.4210 0006755 182.9590 350.1151  1.00188168 88256
Source of the keplerian elements: AFSPC